Location: ?????????
(41.2393°N, 22.9479°E)
Time: 03:19:36
(UTC+00:00)

Cosmos 1092 Rocket - Visible Passes

Search period start: 19 February 2026 00:00
Search period end: 01 March 2026 00:00
Orbit: 954 x 993 km, 82.9° (Epoch: 18 February)

Date Brightness Start Highest point End Pass type
(mag) Time Alt. Az. Time Alt. Az. Time Alt. Az.
22 Feb 6.3 19:03:53 10° NNE 19:03:53 10° NNE 19:03:55 10° NNE visible
23 Feb 6.1 19:27:48 16° N 19:27:48 16° N 19:28:55 10° N visible
24 Feb 6.9 04:29:26 10° NE 04:32:10 13° ENE 04:34:53 10° E visible
24 Feb 5.9 18:06:58 13° NE 18:06:58 13° NE 18:07:41 10° NNE visible
24 Feb 6.0 19:51:30 21° NNW 19:51:30 21° NNW 19:53:36 10° N visible
25 Feb 5.2 18:30:24 26° NNE 18:30:24 26° NNE 18:33:09 10° NNE visible
25 Feb 6.1 20:14:55 22° NW 20:14:55 22° NW 20:17:55 10° NNW visible
26 Feb 5.7 17:08:47 11° ENE 17:08:47 11° ENE 17:09:45 10° ENE visible
26 Feb 4.2 18:53:14 59° NNE 18:53:14 59° NNE 18:58:15 10° N visible
26 Feb 6.5 20:37:40 15° WNW 20:38:06 15° WNW 20:41:29 10° NNW visible
27 Feb 7.2 04:00:18 10° NE 04:01:16 10° ENE 04:02:14 10° ENE visible
27 Feb 5.0 17:27:20 10° SE 17:32:00 23° E 17:36:42 10° NE visible
27 Feb 4.6 19:10:45 10° SSW 19:16:50 54° WNW 19:23:02 10° N visible
28 Feb 6.7 04:22:21 10° NNE 04:26:46 19° ENE 04:31:09 10° ESE visible
28 Feb 4.3 17:50:48 10° SSE 17:56:32 40° E 18:02:22 10° NNE visible
28 Feb 5.6 19:36:29 10° SW 19:41:57 31° WNW 19:47:29 10° NNW visible
